Overview Statistics Trail Chart Weather Telemetry Raw packets
 

This is the latest recevied weather packets stored in our database for station/object SV9TNF-55. If no packets are shown the sender has not sent any weather packets the latest 10 day(s).

<< 41 42 43 44 45 46 47 >>
Time Temp. Humidity Pressure Rain* Wind** Luminosity Snow
1788028605 20.56° C 41% 1016.6 hPa 0 mm 2.24 m/s, 292° - -
1788028005 20.56° C 40% 1016.4 hPa 0 mm 1.34 m/s, 337° - -
1788027405 20.56° C 39% 1016.4 hPa 0 mm 3.13 m/s, 292° - -
1788026805 20.56° C 35% 1016 hPa 0 mm 1.79 m/s, 315° - -
1788026205 20.56° C 35% 1016.1 hPa 0 mm 1.79 m/s, 292° - -
1788025605 20.56° C 39% 1015.8 hPa 0 mm 2.24 m/s, 292° - -
1788025005 20° C 41% 1015.6 hPa 0 mm 0.89 m/s, 270° - -
1788024405 20° C 43% 1015.6 hPa 0 mm 2.24 m/s, 292° - -
1788023804 20° C 44% 1015.7 hPa 0 mm 1.79 m/s, 292° - -
1788023204 20° C 47% 1015.5 hPa 0 mm 1.34 m/s, 270° - -
1788022604 20° C 47% 1015.5 hPa 0 mm 2.24 m/s, 292° - -
1788022004 20° C 48% 1015.2 hPa 0 mm 1.79 m/s, 315° - -
1788021404 20° C 54% 1015.2 hPa 0 mm 2.24 m/s, 292° - -
1788020804 19.44° C 57% 1014.9 hPa 0 mm 2.68 m/s, 292° - -
1788020204 19.44° C 64% 1015.2 hPa 0 mm 2.68 m/s, 315° - -
1788019604 19.44° C 62% 1015.1 hPa 0 mm 2.68 m/s, 315° - -
1788019003 19.44° C 67% 1015.3 hPa 0 mm 3.13 m/s, 292° - -
1788018404 19.44° C 68% 1015.3 hPa 0 mm 2.68 m/s, 315° - -
1788017803 20° C 66% 1015.4 hPa 0 mm 4.02 m/s, 292° - -
1788017204 20° C 66% 1015.3 hPa 0 mm 4.47 m/s, 292° - -
1788016603 20.56° C 65% 1015.2 hPa 0 mm 4.92 m/s, 292° - -
1788016003 20.56° C 65% 1015.1 hPa 0 mm 4.02 m/s, 292° - -
1788015403 20.56° C 65% 1015.2 hPa 0 mm 4.47 m/s, 292° - -
1788014803 20° C 66% 1015.2 hPa 0 mm 5.36 m/s, 292° - -
1788014203 20.56° C 66% 1015.2 hPa 0 mm 5.36 m/s, 292° - -

* Rain latest hour (hover to see other rain measurements)
** Current wind speed in m/s (hover to see current wind gust speed)